GW3992 Weather Reports


time (UTC)temp
F
wind
direction
speed
knots
gust
knots
rain 1hr
in
rain 24hr
in
rain mn
in
humidity
%
barometer
mb
20260505022531 51 37 0.0 0.0 0.00 0.00 0.00 92 1016.5
20260505022028 51 37 0.0 0.0 0.00 0.00 0.00 91 1016.5
20260505021524 51 37 0.0 0.0 0.00 0.00 0.00 91 1016.5
20260505021020 51 37 0.0 0.0 0.00 0.00 0.00 91 1016.4
20260505020514 51 37 0.0 0.0 0.00 0.00 0.00 91 1016.3
20260505020012 51 37 0.0 0.0 0.00 0.00 0.00 91 1016.3
20260505015509 51 37 0.0 0.0 0.00 0.00 0.00 91 1016.4
20260505015005 51 37 0.0 0.0 0.00 0.00 0.00 91 1016.4
20260505014502 51 34 0.0 0.0 0.00 0.00 0.00 91 1016.5
20260505014000 52 42 0.0 0.0 0.00 0.00 0.00 90 1016.4
20260505013457 52 42 0.0 0.0 0.00 0.00 0.00 90 1016.4
20260505012954 52 42 0.0 0.0 0.00 0.00 0.00 90 1016.4
20260505012452 52 42 0.0 0.0 0.00 0.00 0.00 89 1016.4
20260505011948 52 41 0.0 0.0 0.00 0.00 0.00 89 1016.5
20260505011444 52 38 0.0 0.0 0.00 0.00 0.00 89 1016.6
20260505010941 52 33 0.0 0.0 0.00 0.00 0.00 90 1016.7
20260505010437 52 37 0.0 0.0 0.00 0.00 0.00 90 1016.8
20260505005933 52 49 0.0 0.0 0.00 0.00 0.00 91 1016.7
20260505005430 52 39 0.0 0.0 0.00 0.00 0.00 90 1016.7
20260505004928 52 28 0.0 0.0 0.00 0.00 0.00 90 1016.8
20260505004424 52 48 0.0 0.0 0.00 0.00 0.00 90 1016.9
20260505003921 52 47 0.0 0.0 0.00 0.00 0.00 89 1017.1
20260505003419 52 50 0.0 0.0 0.00 0.00 0.00 89 1016.9
20260505002914 52 51 0.0 0.0 0.00 0.00 0.00 88 1016.9
20260505002411 52 51 0.0 0.0 0.00 0.00 0.00 88 1017.0
20260505001910 53 51 0.0 0.0 0.00 0.00 0.00 88 1017.0
20260505001407 53 45 0.0 0.0 0.00 0.00 0.00 87 1017.0
20260505000904 53 49 0.0 0.0 0.00 0.00 0.00 87 1016.9
20260505000401 53 223 0.0 0.0 0.00 0.00 0.00 86 1017.1
20260504235858 53 47 0.0 0.0 0.00 0.00 0.00 86 1016.9
20260504235355 53 81 0.0 0.0 0.00 0.00 0.00 86 1017.0
20260504234851 53 50 0.0 0.0 0.00 0.00 0.00 86 1017.1
20260504234349 53 35 0.0 0.0 0.00 0.00 0.00 87 1017.2
20260504233845 53 43 0.0 0.0 0.00 0.00 0.00 87 1016.9
20260504233341 53 77 0.0 1.7 0.00 0.00 0.00 88 1016.9
20260504232838 53 88 0.0 0.0 0.00 0.00 0.00 89 1016.9
20260504232335 52 51 0.0 0.0 0.00 0.00 0.00 91 1016.8
20260504231832 52 45 0.0 0.0 0.00 0.00 0.00 92 1016.8
20260504231328 52 29 0.0 0.0 0.00 0.00 0.00 92 1016.9
20260504230825 52 32 0.0 0.0 0.00 0.00 0.00 92 1016.8
20260504230323 52 41 0.0 0.0 0.00 0.00 0.00 92 1016.9
20260504225821 52 37 0.0 0.0 0.00 2.46 2.46 92 1016.9
20260504225317 52 20 0.0 0.0 0.00 2.46 2.46 92 1016.9
20260504224815 52 40 0.0 0.0 0.00 2.46 2.46 92 1016.9
20260504224311 52 40 0.0 0.0 0.00 2.46 2.46 92 1017.0
20260504223808 52 40 0.0 0.0 0.00 2.46 2.46 92 1017.0
20260504223303 52 40 0.0 0.0 0.00 2.46 2.46 91 1016.8
20260504222800 52 40 0.0 0.0 0.00 2.46 2.46 91 1016.9
20260504222257 53 40 0.0 0.0 0.00 2.46 2.46 90 1017.1
20260504221755 52 330 0.0 0.0 0.00 2.46 2.46 90 1017.2
20260504221252 52 43 0.0 0.0 0.00 2.46 2.46 90 1017.2
20260504220749 52 51 0.0 0.0 0.00 2.46 2.46 91 1017.1
20260504220246 52 35 0.0 0.0 0.00 2.46 2.46 91 1017.2
20260504215743 52 77 0.0 0.0 0.00 2.46 2.46 92 1017.4
20260504215240 52 38 0.0 0.0 0.00 2.46 2.46 92 1017.3
20260504214736 52 52 0.0 0.0 0.00 2.46 2.46 92 1017.3
20260504214233 53 43 0.9 0.9 0.00 2.46 2.46 92 1017.3
20260504213730 52 48 0.0 0.0 0.00 2.46 2.46 93 1017.3
20260504213226 52 48 0.0 0.0 0.00 2.46 2.46 93 1017.4
20260504212723 52 51 0.0 0.0 0.00 2.46 2.46 93 1017.3
20260504212219 52 8 0.0 0.0 0.00 2.46 2.46 93 1017.5
20260504211717 52 355 0.9 0.9 0.00 2.46 2.46 93 1017.4
20260504211212 52 26 0.0 0.0 0.00 2.46 2.46 93 1017.3
20260504210710 52 336 0.0 0.0 0.00 2.46 2.46 93 1017.4
20260504210207 52 42 0.0 0.0 0.00 2.46 2.46 94 1017.2
20260504205704 52 81 0.0 0.0 0.00 2.46 2.46 93 1017.4
20260504205201 53 38 0.0 0.0 0.00 2.46 2.46 94 1017.5
20260504204700 53 57 0.0 0.0 0.00 2.46 2.46 93 1017.4
20260504204158 53 53 0.0 0.0 0.00 2.46 2.46 93 1017.3
20260504203656 52 8 0.0 0.0 0.00 2.46 2.46 94 1017.3
20260504203154 52 41 0.0 0.0 0.00 2.46 2.46 94 1017.4
20260504202648 53 25 0.0 0.0 0.00 2.46 2.46 94 1017.1
20260504202146 53 39 0.0 0.0 0.00 2.46 2.46 95 1017.5
20260504201642 52 39 0.0 0.0 0.00 2.46 2.46 95 1017.3
20260504201140 52 28 0.0 0.0 0.00 2.46 2.46 94 1017.3
20260504200637 53 13 0.0 0.0 0.00 2.46 2.46 94 1017.1
20260504200133 53 0 0.0 0.0 0.00 2.46 2.46 94 1017.2
20260504195630 53 62 0.0 0.0 0.00 2.46 2.46 94 1017.2
20260504195126 53 6 0.0 0.0 0.00 2.46 2.46 94 1017.2
20260504194623 52 25 0.0 0.0 0.07 2.46 2.46 94 1017.2
20260504194119 52 44 0.0 0.0 0.07 2.46 2.46 94 1017.4
20260504193615 52 44 0.0 0.0 0.00 2.45 2.45 93 1017.3
20260504193114 52 53 0.0 0.0 0.00 2.45 2.45 93 1017.3
20260504192611 53 51 0.0 0.0 0.00 2.45 2.45 92 1017.3
20260504192109 53 260 0.9 1.7 0.00 2.45 2.45 91 1017.4
20260504191608 53 36 0.0 0.0 0.00 2.45 2.45 90 1017.2
20260504191103 53 38 0.0 0.0 0.00 2.45 2.45 91 1017.4
20260504190559 53 62 0.0 0.0 0.00 2.45 2.45 90 1017.3
20260504190055 54 25 0.0 0.0 0.00 2.45 2.45 92 1017.4
20260504185553 54 47 0.0 0.0 0.05 2.45 2.45 91 1017.5
20260504185044 54 39 0.0 0.0 0.24 2.45 2.45 89 1017.4
20260504184539 55 322 0.9 0.9 0.24 2.45 2.45 86 1017.5
20260504184035 55 259 2.6 3.5 0.00 2.41 2.41 83 1017.5
20260504183532 55 255 0.0 0.9 0.00 2.41 2.41 85 1017.5
20260504183031 54 221 0.0 1.7 0.00 2.41 2.41 88 1017.5
20260504182527 54 51 0.0 0.0 0.00 2.41 2.41 89 1017.3
20260504182025 53 61 0.0 0.0 0.00 2.41 2.41 90 1017.4
20260504181521 53 42 0.0 0.0 0.00 2.41 2.41 89 1017.2
20260504181020 53 36 0.0 0.0 0.00 2.41 2.41 89 1017.1
20260504180518 54 301 0.0 0.0 0.00 2.41 2.41 88 1017.0
20260504180017 54 55 0.0 0.0 0.00 2.41 2.41 88 1017.0
20260504175514 53 72 0.0 0.0 0.00 2.41 2.41 90 1017.2
20260504175011 53 28 0.0 0.0 0.00 2.41 2.41 90 1017.1
20260504174509 54 44 0.0 0.0 0.00 2.41 2.41 90 1017.2
20260504174005 53 40 0.0 0.0 0.00 2.41 2.41 92 1016.9
20260504173502 53 46 0.0 0.0 0.00 2.41 2.41 92 1017.0
20260504173000 53 60 0.0 0.0 0.00 2.41 2.41 92 1016.9
20260504172455 53 22 0.0 0.0 0.00 2.41 2.41 92 1016.8
20260504171952 53 47 0.0 0.0 0.00 2.41 2.41 92 1017.0
20260504171449 53 59 0.0 0.0 0.00 2.41 2.41 92 1016.9
20260504170946 53 42 0.0 0.0 0.00 2.41 2.41 92 1016.9
20260504170442 53 31 0.0 0.0 0.00 2.41 2.41 92 1016.9
20260504160402 56 62 0.0 0.0 0.00 2.39 2.39 83 1016.7
20260504150826 58 76 0.9 1.7 0.00 2.39 2.39 80 1016.3
20260504150322 59 99 3.5 3.5 0.00 2.39 2.39 79 1016.4
20260504141252 59 281 0.0 0.9 0.00 2.39 2.39 75 1016.0
20260504140749 59 117 0.9 1.7 0.00 2.39 2.39 75 1015.9
20260504140245 59 306 0.0 0.9 0.00 2.39 2.39 76 1015.9
20260504042204 57 270 7.8 8.7 0.05 2.17 2.17 90 1014.6
20260504041700 57 270 7.8 8.7 0.05 2.17 2.17 90 1014.6
20260504041156 57 259 7.8 13.0 0.12 2.17 2.17 92 1014.0
20260504040653 57 220 3.5 3.5 0.14 2.16 2.16 93 1014.2
20260504040150 57 249 6.1 8.7 0.19 2.15 2.15 93 1014.4
20260504035647 56 287 4.3 7.0 0.17 2.14 2.14 94 1014.3
20260504035144 57 230 0.9 1.7 0.28 2.12 2.12 95 1014.3
20260504034641 57 2 2.6 5.2 0.35 2.12 2.12 96 1014.6
20260504034138 58 316 2.6 5.2 0.28 2.08 2.08 96 1014.4
20260504033636 57 70 0.9 0.9 0.26 2.05 2.05 95 1014.2
20260504033133 57 215 1.7 2.6 0.14 2.03 2.03 95 1014.0
20260504032630 57 78 0.9 2.6 0.05 2.01 2.01 94 1014.3
20260504032127 57 208 7.8 12.2 0.05 2.01 2.01 95 1014.1
20260504031624 56 257 7.8 11.3 0.07 2.00 2.00 96 1014.2
20260504031120 56 206 2.6 2.6 0.19 2.00 2.00 96 1014.4
20260504030617 57 258 7.8 11.3 0.17 1.99 1.99 97 1014.3
20260504030114 57 236 2.6 3.5 0.05 1.97 1.97 97 1014.2
20260504025610 57 252 5.2 8.7 0.12 1.96 1.96 97 1014.4
20260504025108 57 252 2.6 5.2 0.24 1.96 1.96 97 1014.3
20260504024605 57 307 7.0 8.7 0.42 1.94 1.94 97 1014.3
20260504024101 57 252 7.8 9.6 0.54 1.92 1.92 97 1014.4
20260504023558 59 252 7.8 13.9 0.47 1.88 1.88 97 1014.4
20260504023054 59 208 2.6 5.2 0.50 1.83 1.83 97 1014.4